Theta_e
337 348 357 356 355 355 355 355 354 354 354 354 353 353 354 354 353 353 353 353 352 350 347 346 345 345 344 343 343 345 345 345 345 343 340 341 350 345 347 344 348 349 354
340 348 357 357 356 356 355 355 354 354 354 353 353 353 353 352 352 352 352 352 350 348 346 344 344 343 343 343 343 345 345 346 347 344 341 342 345 350 346 343 342 350 352
340 347 354 357 356 356 356 355 354 353 353 353 352 351 350 350 349 349 349 350 349 348 346 343 342 343 343 344 344 346 347 348 348 347 344 339 349 353 350 346 344 344 349
341 347 349 357 357 356 355 354 353 353 352 351 350 349 349 348 348 348 348 348 347 346 346 344 344 344 344 345 344 346 347 349 347 346 334 335 340 354 351 348 346 345 344
342 346 352 357 357 356 355 354 352 352 351 350 350 349 349 349 348 348 348 347 345 344 344 344 345 343 342 341 341 343 342 342 346 342 333 333 335 352 354 350 350 348 344
339 343 355 356 356 356 353 352 352 352 351 351 351 350 350 350 350 349 349 348 347 343 342 344 344 340 340 339 340 340 340 341 339 331 335 337 336 345 352 350 350 348 347
337 341 351 356 356 356 355 354 353 353 352 352 352 352 352 351 351 350 350 349 348 344 340 342 344 337 338 338 337 337 336 336 325 328 331 335 345 350 349 353 352 351 351
338 342 349 356 356 356 355 355 354 353 353 352 353 353 353 352 351 350 350 349 350 347 342 343 343 338 337 337 336 334 333 333 327 326 328 333 342 347 351 350 351 350 352
340 342 346 348 355 355 354 353 353 353 352 352 353 353 354 352 351 351 351 349 350 349 345 344 339 338 335 335 334 331 329 330 327 326 324 329 336 338 343 348 348 348 349
340 339 341 345 345 348 349 353 351 351 351 351 352 354 353 352 352 351 350 350 350 349 347 343 338 336 335 333 331 328 328 331 325 325 325 330 333 334 337 339 344 348 348
338 341 342 343 344 345 344 348 351 350 350 350 352 354 352 350 346 345 348 347 347 349 350 341 338 335 334 332 329 327 331 327 326 326 325 331 331 332 333 336 339 344 349
339 339 344 346 345 348 347 348 345 342 345 344 348 350 351 350 347 344 345 346 347 351 348 339 337 334 331 331 330 330 329 328 327 326 326 328 328 330 331 332 335 339 344
345 349 352 351 353 353 350 344 342 341 342 341 345 352 353 351 346 345 345 343 345 350 344 338 334 332 329 329 332 333 330 328 328 327 328 324 326 329 330 331 331 334 338
346 348 346 347 350 352 351 344 350 342 340 340 346 348 348 346 346 345 344 341 342 346 342 338 335 334 334 331 329 330 329 329 328 328 330 323 325 327 329 329 330 331 334
340 342 343 349 352 352 351 344 344 345 342 342 346 349 350 346 345 345 343 343 339 339 337 336 335 335 334 332 330 330 329 329 329 328 328 324 324 324 326 328 329 330 332
342 341 344 348 352 351 349 348 347 348 344 343 343 347 350 348 345 343 341 341 341 339 337 335 335 334 334 333 332 332 332 331 329 329 327 327 328 325 324 327 329 330 330
342 342 345 347 349 350 347 346 346 345 342 343 346 348 347 348 347 345 341 341 343 342 339 337 336 335 334 333 332 333 332 330 329 328 327 326 326 332 327 327 329 331 332
342 344 350 344 346 346 348 348 346 346 346 347 348 349 348 346 347 347 344 347 343 341 338 336 335 333 332 330 329 329 328 329 329 328 327 325 324 324 329 332 327 330 331
343 344 345 348 345 345 345 344 347 348 345 346 347 346 346 345 343 343 342 346 341 337 335 333 333 334 330 330 328 328 328 326 328 326 326 325 325 324 325 329 329 329 331
341 343 342 341 344 346 343 344 341 343 345 349 341 338 339 337 336 338 337 336 336 333 332 331 329 332 331 329 326 324 324 325 324 323 322 322 323 324 324 327 327 328 329
341 341 342 343 345 344 340 337 338 338 343 340 338 339 337 335 334 333 329 330 332 331 332 331 330 328 325 324 320 320 321 322 322 320 320 321 321 320 322 323 325 326 328
338 339 339 340 341 339 338 339 340 341 338 338 338 335 335 333 332 330 330 328 330 327 327 326 326 322 321 322 317 315 310 313 315 317 318 317 318 320 322 323 324 324 325
334 334 334 334 335 335 335 332 331 331 331 328 328 328 330 330 328 328 327 326 326 325 320 323 322 321 316 317 318 314 309 306 310 315 316 316 319 320 322 322 322 323 323
330 331 332 332 332 332 332 328 328 323 321 323 324 324 324 324 323 322 322 321 321 319 319 318 317 318 318 314 316 317 318 316 308 306 312 314 316 319 321 319 319 320 320
327 327 328 330 330 330 329 328 323 323 321 321 319 321 321 321 321 320 321 321 320 319 319 318 317 318 317 316 315 315 314 314 314 309 306 309 315 315 316 316 318 321 321
325 325 325 327 328 328 327 325 324 321 320 317 317 316 316 317 318 321 321 321 321 320 318 318 320 320 319 318 317 316 314 311 310 310 307 307 308 312 315 316 316 322 320
Wind_Speed
10 16 15 14 13 11 10 10 10 9 9 8 8 8 7 7 7 8 8 8 8 8 9 9 10 10 10 10 9 9 9 9 9 10 9 7 2 1 2 3 5 6 5
14 16 15 13 13 12 12 11 10 9 8 8 7 7 7 6 6 6 6 7 7 7 8 8 8 9 9 9 8 8 9 9 8 8 9 10 6 2 2 1 5 9 3
14 15 16 14 14 12 11 10 8 7 6 5 5 5 4 4 4 4 4 5 6 6 7 6 7 7 7 7 8 9 9 9 9 10 10 6 2 7 4 1 1 3 2
13 13 14 13 11 10 8 6 6 5 5 4 4 4 3 2 2 3 4 4 5 5 6 6 6 7 8 8 8 9 9 9 8 9 8 5 7 14 7 4 3 2 1
12 12 11 13 10 8 7 6 4 4 3 4 3 3 3 2 2 1 1 3 3 4 5 5 6 7 9 9 9 9 10 10 11 12 9 9 8 11 7 6 8 7 1
12 11 15 10 8 6 4 3 3 4 4 4 4 3 2 2 2 2 2 1 2 3 4 5 5 6 8 8 9 9 10 10 17 8 8 7 6 14 5 5 5 1 4
9 8 13 7 7 8 9 9 6 4 5 7 6 5 5 6 4 5 4 3 2 2 2 3 4 5 6 7 7 8 9 12 10 8 7 5 13 10 9 6 5 7 6
9 6 10 13 10 9 8 7 5 3 3 6 9 10 8 8 6 6 6 6 6 5 2 4 8 7 6 5 6 7 7 10 9 7 8 5 16 14 11 7 6 8 8
9 11 9 9 10 7 5 2 2 2 4 5 7 10 10 11 10 9 9 8 9 8 6 9 9 8 5 5 5 5 5 8 10 5 7 5 14 12 13 13 6 5 8
7 6 5 5 5 5 9 8 2 0 2 6 8 8 10 12 14 12 10 14 11 9 8 10 9 8 7 6 4 1 6 11 8 7 5 8 11 12 13 11 11 10 7
5 3 4 4 5 6 5 5 10 5 4 3 7 10 7 12 8 9 9 3 9 10 9 8 7 9 9 8 5 3 12 5 7 6 5 13 13 13 12 12 12 11 11
2 2 2 6 6 7 4 5 3 4 3 5 10 12 7 13 8 10 13 10 13 13 11 10 8 10 11 3 7 11 3 6 6 6 5 10 11 14 13 12 13 13 11
4 4 6 5 6 7 5 6 4 1 2 2 5 11 11 11 8 8 7 7 8 9 8 7 10 9 4 5 2 1 4 5 4 5 6 5 7 12 16 16 14 15 13
3 8 8 10 8 7 6 8 4 1 3 3 5 7 8 8 7 7 6 7 5 3 5 6 5 5 6 5 5 4 5 4 4 5 5 2 7 13 16 17 18 16 16
10 8 11 9 7 6 6 6 4 4 3 5 8 9 8 7 7 6 7 6 5 5 6 6 6 6 6 8 7 7 7 6 5 5 5 1 7 10 13 17 18 18 18
10 12 11 9 8 7 6 7 5 3 6 8 8 9 10 6 6 6 6 7 5 5 6 5 7 6 7 8 10 9 7 8 8 7 7 8 8 10 11 14 17 19 20
10 12 13 8 6 7 8 7 5 5 7 7 6 5 6 6 5 7 6 6 5 5 8 8 8 8 8 10 11 9 8 10 8 8 9 10 9 9 13 13 17 19 20
10 9 9 7 6 7 7 7 6 6 6 5 4 4 4 4 4 6 6 5 5 6 7 6 7 8 9 8 9 9 8 8 11 10 12 8 9 9 7 11 9 16 18
8 8 7 7 8 10 10 9 7 6 6 5 4 5 7 6 6 5 8 6 6 7 6 5 5 8 8 8 9 7 5 8 11 12 14 11 11 9 8 12 10 13 18
8 10 10 8 9 10 8 7 6 5 6 6 7 7 9 8 8 6 5 5 4 4 4 4 3 7 8 8 9 9 8 10 9 10 13 9 10 9 9 8 10 9 3
11 10 11 11 11 9 8 9 8 9 7 6 5 9 10 9 9 9 7 4 4 2 4 5 6 7 7 3 9 10 10 12 11 6 10 8 10 9 6 6 7 7 9
13 13 14 15 15 12 9 9 7 6 5 7 7 7 10 10 9 7 7 6 7 8 5 6 7 8 9 6 9 11 12 9 3 2 4 8 9 8 8 6 6 7 6
14 16 15 15 15 14 14 10 10 9 6 7 8 8 8 10 10 10 10 9 9 8 7 8 10 11 10 9 5 7 8 4 6 5 6 8 9 7 6 8 6 5 6
14 14 15 15 15 14 16 13 13 12 10 9 10 10 9 10 10 11 10 9 8 9 7 8 6 8 9 8 6 4 6 8 6 7 5 4 7 7 7 7 7 5 5
12 12 13 13 14 14 14 14 12 13 10 10 10 11 9 7 8 10 10 9 8 7 7 8 7 7 8 6 7 5 7 7 6 5 7 7 5 5 7 8 6 6 6
13 12 12 13 13 13 14 15 16 16 14 12 12 10 10 9 8 11 12 10 9 9 9 8 9 9 8 8 8 6 7 6 7 4 4 6 9 8 6 5 6 6 5
Wind_Direction
169 138 161 170 172 167 167 168 167 164 153 148 140 131 121 112 104 96 90 80 74 69 66 65 63 59 56 52 49 39 32 29 20 6 352 319 265 297 130 134 246 168 50
152 144 164 169 175 175 176 176 174 169 160 152 145 135 128 119 111 101 91 87 81 75 68 65 60 55 53 47 37 28 19 15 15 359 325 272 203 170 129 78 329 68 53
153 149 170 175 179 181 181 180 177 174 164 156 142 129 120 109 96 89 80 77 84 85 76 63 58 51 40 35 28 18 14 7 358 329 292 321 61 150 183 153 36 51 16
145 151 170 172 180 184 185 184 183 188 178 170 157 153 143 110 84 75 73 70 72 75 75 68 54 49 43 35 29 24 20 7 345 290 283 346 323 147 179 180 159 122 133
156 157 141 163 180 185 192 196 206 223 211 198 195 195 180 160 151 149 79 65 66 70 67 62 52 44 55 54 37 29 28 358 313 275 1 13 318 98 168 188 178 179 175
164 157 115 152 175 187 206 259 270 256 260 267 263 250 252 250 265 292 311 352 19 39 56 66 65 62 53 49 38 27 17 349 308 10 42 31 2 10 327 215 271 163 170
152 150 139 161 188 195 191 188 199 241 290 291 270 274 284 283 288 289 281 289 313 341 52 90 110 88 80 61 51 33 16 339 317 11 347 13 37 0 344 278 252 235 215
141 150 149 168 193 204 204 211 194 209 267 296 302 298 287 280 277 271 268 258 247 231 184 143 141 132 106 71 51 41 23 341 302 4 324 349 31 5 4 330 299 267 264
160 188 178 185 185 207 220 227 331 335 302 289 292 295 297 295 289 279 269 255 246 235 204 165 147 134 108 79 62 35 358 317 310 13 320 336 16 2 4 354 334 271 262
189 204 205 213 205 243 178 122 56 213 277 294 292 284 290 285 261 255 260 243 245 240 216 171 153 140 130 119 83 26 270 252 4 356 344 44 2 350 352 350 344 321 285
181 197 262 287 253 259 253 138 189 124 43 330 298 244 249 268 275 263 243 294 261 245 210 164 166 155 160 142 152 256 265 3 353 11 325 33 350 337 335 334 335 331 308
190 252 316 310 276 268 255 230 5 147 44 343 336 310 297 273 305 307 294 281 265 246 192 164 190 187 207 237 177 206 355 346 352 344 35 33 341 330 327 322 319 320 319
6 329 31 319 288 306 285 261 256 256 75 299 17 306 317 298 300 301 298 285 257 202 197 186 195 227 233 283 213 293 327 309 343 329 48 56 322 318 317 314 307 304 304
358 25 346 347 328 326 297 301 261 191 45 343 272 272 256 269 286 299 302 303 268 168 217 230 229 223 241 260 269 260 268 300 331 319 352 68 306 308 305 302 300 292 289
29 357 359 354 2 344 317 336 323 352 1 293 298 302 269 272 281 288 289 279 292 298 271 236 235 238 255 244 250 259 288 288 295 288 307 307 278 289 298 299 295 289 282
15 9 1 4 10 350 341 329 314 288 307 310 312 309 295 278 273 286 271 273 267 271 277 283 272 263 253 257 256 254 269 289 286 298 306 302 222 257 273 288 291 288 279
24 10 6 2 355 350 335 337 318 279 294 294 301 319 283 271 272 272 265 265 271 278 272 257 257 245 254 258 268 265 270 275 280 293 296 302 304 233 241 274 286 288 278
18 14 11 5 356 351 339 321 310 303 303 310 323 294 318 313 274 279 278 278 290 277 259 266 271 268 273 274 277 278 280 284 280 284 279 296 297 292 287 261 294 289 280
28 12 0 15 9 344 331 323 318 332 331 357 353 4 8 353 331 310 303 327 314 304 324 317 314 293 280 284 278 255 269 287 292 295 297 288 281 266 288 294 301 279 269
38 27 17 11 10 349 340 335 350 344 14 13 19 30 17 19 14 352 348 357 332 342 284 296 309 281 292 297 294 301 292 268 291 290 288 291 277 276 275 313 310 297 288
36 33 23 18 12 4 357 346 344 354 358 22 22 26 13 9 20 17 357 17 309 251 319 304 300 286 298 302 291 284 272 264 241 306 306 302 296 283 299 290 283 337 327
41 39 39 34 31 19 11 7 354 19 8 358 14 20 25 13 17 9 1 339 355 327 320 334 320 306 300 299 300 298 287 287 29 242 299 295 284 304 272 274 303 325 335
50 43 41 36 38 30 12 18 7 6 10 4 0 13 9 5 9 5 356 348 337 313 336 327 321 315 300 305 297 287 299 301 317 283 250 272 288 290 279 277 299 317 335
44 42 41 36 30 34 19 21 17 1 360 356 352 10 342 5 7 3 355 354 347 321 348 317 322 309 295 295 323 287 271 293 297 301 284 291 340 299 284 275 282 291 295
40 41 36 39 36 32 29 20 7 8 354 351 351 346 359 16 14 13 5 358 357 345 349 336 338 329 309 319 292 300 305 276 259 266 282 308 304 280 292 284 261 291 265
31 27 39 37 33 24 20 17 12 6 359 358 357 357 357 7 7 25 359 0 356 352 353 339 340 338 330 316 314 296 259 302 301 317 310 310 292 307 282 294 288 290 282